When you browse on this site, cookies collect data to enhance your experience and personalize the content and advertising you see.
Visit our Privacy Policy to learn more. By continuing to use the site, you agree to this use of cookies and data.
  • In Österreich
  • Länderverzeichnis
  • Für 7 Tage
  • Wassertemperatur
  • Wetterkarte
  • News
  • Widgets
  • user-avatar
    Anmelden

    Stündliche Wetter Halifax

    Heute, 6 Juni, Samstag

    Zeit Temperatur Niederschläge Wind Luftdruck Luftfeuchtigkeit
    00:00 +15°C° 0 mm 4 m/S 755 mmHg 97%
    01:00 +17°C° 0 mm 4 m/S 755 mmHg 96%
    02:00 +17°C° 0 mm 3 m/S 755 mmHg 95%
    03:00 +16°C° 0 mm 2 m/S 754 mmHg 96%
    04:00 +15°C° 0 mm 2 m/S 754 mmHg 98%
    05:00 +15°C° 0 mm 2 m/S 754 mmHg 99%
    06:00 +14°C° 0 mm 3 m/S 754 mmHg 96%
    07:00 +16°C° 0 mm 3 m/S 754 mmHg 93%
    08:00 +17°C° 0 mm 3 m/S 755 mmHg 90%
    09:00 +15°C° 1.6 mm 4 m/S 754 mmHg 93%
    10:00 +15°C° 1.6 mm 4 m/S 754 mmHg 95%
    11:00 +15°C° 1.6 mm 4 m/S 753 mmHg 98%
    12:00 +15°C° 2.9 mm 5 m/S 753 mmHg 98%
    13:00 +15°C° 2.9 mm 5 m/S 753 mmHg 98%
    14:00 +15°C° 2.9 mm 6 m/S 752 mmHg 98%
    15:00 +15°C° 0.1 mm 6 m/S 752 mmHg 98%
    16:00 +15°C° 0.1 mm 6 m/S 752 mmHg 98%
    17:00 +16°C° 0.1 mm 5 m/S 752 mmHg 97%
    18:00 +15°C° 0.1 mm 5 m/S 752 mmHg 98%
    19:00 +15°C° 0.1 mm 4 m/S 751 mmHg 98%
    20:00 +15°C° 0.1 mm 4 m/S 751 mmHg 98%
    21:00 +14°C° 0.1 mm 3 m/S 751 mmHg 98%
    22:00 +15°C° 0.1 mm 2 m/S 751 mmHg 99%
    23:00 +15°C° 0.1 mm 2 m/S 750 mmHg 99%

    Morgen, 7 Juni, Sonntag

    Zeit Temperatur Niederschläge Wind Luftdruck Luftfeuchtigkeit
    00:00 +15°C° 0.2 mm 1 m/S 750 mmHg 99%
    01:00 +15°C° 0.2 mm 1 m/S 750 mmHg 99%
    02:00 +15°C° 0.2 mm 1 m/S 750 mmHg 99%
    03:00 +14°C° 0.3 mm 2 m/S 749 mmHg 98%
    04:00 +12°C° 0.3 mm 3 m/S 749 mmHg 98%
    05:00 +11°C° 0.3 mm 4 m/S 749 mmHg 98%
    06:00 +9°C° 1.7 mm 5 m/S 749 mmHg 97%
    07:00 +8°C° 1.7 mm 5 m/S 750 mmHg 97%
    08:00 +8°C° 1.7 mm 6 m/S 750 mmHg 97%
    09:00 +8°C° 0.3 mm 6 m/S 750 mmHg 96%
    10:00 +9°C° 0.3 mm 6 m/S 750 mmHg 95%
    11:00 +10°C° 0.3 mm 6 m/S 750 mmHg 93%
    12:00 +10°C° 0.2 mm 6 m/S 750 mmHg 91%
    13:00 +10°C° 0.2 mm 6 m/S 750 mmHg 89%
    14:00 +10°C° 0.2 mm 6 m/S 750 mmHg 86%
    15:00 +9°C° 0.3 mm 6 m/S 750 mmHg 88%
    16:00 +8°C° 0.3 mm 6 m/S 750 mmHg 89%
    17:00 +8°C° 0.3 mm 6 m/S 750 mmHg 90%
    18:00 +8°C° 0.1 mm 6 m/S 750 mmHg 88%
    19:00 +7°C° 0.1 mm 6 m/S 751 mmHg 87%
    20:00 +7°C° 0.1 mm 6 m/S 751 mmHg 85%
    21:00 +7°C° 0.1 mm 6 m/S 751 mmHg 82%
    22:00 +7°C° 0.1 mm 5 m/S 751 mmHg 79%
    23:00 +7°C° 0.1 mm 5 m/S 752 mmHg 76%

    übermorgen, 8 Juni, Montag

    Zeit Temperatur Niederschläge Wind Luftdruck Luftfeuchtigkeit
    00:00 +7°C° 0 mm 5 m/S 752 mmHg 74%
    01:00 +6°C° 0 mm 5 m/S 752 mmHg 72%
    02:00 +6°C° 0 mm 5 m/S 752 mmHg 70%
    03:00 +6°C° 0 mm 5 m/S 752 mmHg 73%
    04:00 +6°C° 0 mm 5 m/S 752 mmHg 76%
    05:00 +5°C° 0 mm 5 m/S 752 mmHg 79%
    06:00 +7°C° 0 mm 5 m/S 752 mmHg 72%
    07:00 +9°C° 0 mm 5 m/S 753 mmHg 65%
    08:00 +12°C° 0 mm 5 m/S 753 mmHg 58%
    09:00 +14°C° 0 mm 5 m/S 753 mmHg 55%
    10:00 +15°C° 0 mm 5 m/S 753 mmHg 51%
    11:00 +17°C° 0 mm 5 m/S 753 mmHg 47%
    12:00 +17°C° 0 mm 5 m/S 754 mmHg 48%
    13:00 +18°C° 0 mm 4 m/S 754 mmHg 49%
    14:00 +17°C° 0 mm 4 m/S 754 mmHg 50%
    15:00 +17°C° 0 mm 4 m/S 754 mmHg 51%
    16:00 +17°C° 0 mm 3 m/S 755 mmHg 53%
    17:00 +17°C° 0 mm 3 m/S 755 mmHg 55%
    18:00 +14°C° 0 mm 3 m/S 756 mmHg 63%
    19:00 +13°C° 0 mm 2 m/S 756 mmHg 71%
    20:00 +11°C° 0 mm 1 m/S 757 mmHg 80%
    21:00 +10°C° 0 mm 1 m/S 757 mmHg 82%
    22:00 +9°C° 0 mm 1 m/S 757 mmHg 84%
    23:00 +7°C° 0 mm 0 m/S 757 mmHg 86%

    9 Juni, Dienstag

    Zeit Temperatur Niederschläge Wind Luftdruck Luftfeuchtigkeit
    00:00 +7°C° 0 mm 0 m/S 757 mmHg 86%
    01:00 +7°C° 0 mm 0 m/S 758 mmHg 86%
    02:00 +8°C° 0 mm 1 m/S 758 mmHg 86%
    03:00 +7°C° 0 mm 0 m/S 758 mmHg 87%
    04:00 +7°C° 0 mm 0 m/S 758 mmHg 88%
    05:00 +7°C° 0 mm 0 m/S 759 mmHg 88%
    06:00 +11°C° 0 mm 1 m/S 759 mmHg 78%
    07:00 +13°C° 0 mm 1 m/S 760 mmHg 68%
    08:00 +16°C° 0 mm 1 m/S 760 mmHg 58%
    09:00 +18°C° 0 mm 2 m/S 760 mmHg 52%
    10:00 +19°C° 0 mm 2 m/S 760 mmHg 46%
    11:00 +21°C° 0 mm 3 m/S 760 mmHg 39%
    12:00 +21°C° 0 mm 3 m/S 760 mmHg 40%
    13:00 +21°C° 0 mm 4 m/S 760 mmHg 40%
    14:00 +21°C° 0 mm 5 m/S 760 mmHg 41%
    15:00 +20°C° 0 mm 5 m/S 760 mmHg 43%
    16:00 +19°C° 0 mm 5 m/S 761 mmHg 45%
    17:00 +17°C° 0 mm 5 m/S 761 mmHg 48%
    18:00 +15°C° 0 mm 4 m/S 761 mmHg 56%
    19:00 +13°C° 0 mm 4 m/S 762 mmHg 64%
    20:00 +11°C° 0 mm 4 m/S 762 mmHg 72%
    21:00 +11°C° 0 mm 4 m/S 762 mmHg 75%
    22:00 +11°C° 0 mm 4 m/S 762 mmHg 78%
    23:00 +11°C° 0 mm 4 m/S 763 mmHg 81%

    10 Juni, Mittwoch

    Zeit Temperatur Niederschläge Wind Luftdruck Luftfeuchtigkeit
    00:00 +11°C° 0 mm 4 m/S 763 mmHg 81%
    01:00 +11°C° 0 mm 3 m/S 763 mmHg 82%
    02:00 +11°C° 0 mm 3 m/S 763 mmHg 82%
    03:00 +11°C° 0 mm 4 m/S 763 mmHg 82%
    04:00 +11°C° 0 mm 4 m/S 763 mmHg 81%
    05:00 +12°C° 0 mm 4 m/S 763 mmHg 81%
    06:00 +12°C° 0 mm 4 m/S 763 mmHg 79%
    07:00 +13°C° 0 mm 5 m/S 763 mmHg 77%
    08:00 +14°C° 0 mm 5 m/S 764 mmHg 75%
    09:00 +15°C° 0 mm 5 m/S 764 mmHg 72%
    10:00 +16°C° 0 mm 5 m/S 764 mmHg 68%
    11:00 +17°C° 0 mm 6 m/S 764 mmHg 64%
    12:00 +17°C° 0 mm 6 m/S 764 mmHg 64%
    13:00 +19°C° 0 mm 6 m/S 764 mmHg 63%
    14:00 +19°C° 0 mm 6 m/S 764 mmHg 62%
    15:00 +17°C° 0 mm 6 m/S 764 mmHg 65%
    16:00 +16°C° 0 mm 6 m/S 764 mmHg 67%
    17:00 +16°C° 0 mm 6 m/S 764 mmHg 70%
    18:00 +15°C° 0 mm 6 m/S 764 mmHg 73%
    19:00 +13°C° 0 mm 6 m/S 764 mmHg 77%
    20:00 +11°C° 0 mm 6 m/S 764 mmHg 80%
    21:00 +12°C° 0 mm 5 m/S 764 mmHg 81%
    22:00 +12°C° 0 mm 5 m/S 764 mmHg 82%
    23:00 +11°C° 0 mm 4 m/S 764 mmHg 83%

    11 Juni, Donnerstag

    Zeit Temperatur Niederschläge Wind Luftdruck Luftfeuchtigkeit
    00:00 +11°C° 0 mm 4 m/S 764 mmHg 84%
    01:00 +11°C° 0 mm 4 m/S 764 mmHg 84%
    02:00 +11°C° 0 mm 4 m/S 764 mmHg 85%
    03:00 +10°C° 0 mm 3 m/S 764 mmHg 86%
    04:00 +10°C° 0 mm 3 m/S 764 mmHg 86%
    05:00 +10°C° 0 mm 3 m/S 763 mmHg 87%
    06:00 +12°C° 0 mm 3 m/S 763 mmHg 80%
    07:00 +13°C° 0 mm 3 m/S 763 mmHg 74%
    08:00 +16°C° 0 mm 3 m/S 763 mmHg 67%
    09:00 +17°C° 0 mm 4 m/S 763 mmHg 63%
    10:00 +18°C° 0 mm 4 m/S 763 mmHg 58%
    11:00 +19°C° 0 mm 4 m/S 763 mmHg 54%
    12:00 +20°C° 0 mm 4 m/S 763 mmHg 51%
    13:00 +20°C° 0 mm 4 m/S 762 mmHg 49%
    14:00 +20°C° 0 mm 4 m/S 762 mmHg 47%
    15:00 +19°C° 0 mm 4 m/S 762 mmHg 48%
    16:00 +18°C° 0 mm 4 m/S 762 mmHg 50%
    17:00 +18°C° 0 mm 4 m/S 762 mmHg 51%
    18:00 +16°C° 0 mm 3 m/S 762 mmHg 62%
    19:00 +13°C° 0 mm 3 m/S 762 mmHg 73%
    20:00 +12°C° 0 mm 2 m/S 762 mmHg 83%
    21:00 +12°C° 0 mm 2 m/S 762 mmHg 87%
    22:00 +10°C° 0 mm 2 m/S 762 mmHg 91%
    23:00 +10°C° 0 mm 2 m/S 762 mmHg 94%
    Mehr zeigen